ATLAS 5 CENTAUR DEB, 44694

Orbit data source: Space-Track

ATLAS 5 CENTAUR DEB, 44694 is space debris in HEO originally from a launch on Wed, 17 Oct 2018 UTC launched from the Air Force Eastern Test Range (AFETR). Debris objects in space refer to the collection of defunct objects orbiting the Earth. Examples of debris include non-operational satellites, rocket bodies, and fragments generated from explosions, collisions, or faulty payload assembly.

Loading next visibility...
Identifier
44694, 2018-079BG
Orbit
HEO
Country
Flag of USUS
Related business
Flag of USUnited Launch Alliance/Lockheed Martin (US)
Manufacturer
ULA Decatur
Mission
Spacecraft
Bus & Motor
Unknown
Mass
Unknown
Launch date (UTC)
2018-10-17 (8 years ago)
Launch vehicle
Unknown
Launch site
Air Force Eastern Test Range (AFETR)
Object type
Payload
Rocket body
Debris
Shape & HBR
Unknown shape, 1.1 m
Radar Cross Section
Medium (>0.1 m² and <1 m²)

Expand to show TLE details & history
Last TLE update: 1 day ago

TLE from 1 day ago
0 ATLAS 5 CENTAUR DEB
1 44694U 18079BG  26234.77052855 -.00000175  00000-0  00000-0 0  9992
2 44694  13.6957  33.8567 4713875 309.8079  17.2143  1.77406414 47747
Epoch: 2026-08-22T18:29Z
TLE epoch observation values (Epoch: 2026-08-22T18:29:33.666Z)
Latitude
-0.0001°
Longitude
145.44382°
Altitude
10,829.874 km
Speed
5.701 km/s
True Right ascension
02h 15m 38s
True Declination
0° 00' 00"
Sunlit
Object was in daylight at epoch
Visualization orbit readout
Latitude
Unknown
Longitude
Unknown
Altitude
Unknown
Speed
Unknown
Apparent Right ascension
Unknown
Apparent Declination
Unknown
Sunlit
N/A
Visualization observer readout
Local Sidereal Time
16:28:04
Azimuth
Unknown
Elevation
Unknown
Doppler factor
Unknown
Orbital elements
Apogee altitude
36,036.299 km
Perigee altitude
8,859.726 km
Semi-major axis
28,826.15 km
Eccentricity
0.47139
Inclination
13.6957°
RAAN
33.8567°
Arg. of periapsis
309.8079°
True anomaly
49.96755°
Mean anomaly
17.2143°
Eccentric anomaly
31.20911°
Mean motion
0.44347 °/min
Orbital period
811.78 mins
BSTAR
0
Loading maneuver chart data...
Computing Atmospheric mass density...

Documentation

Showing up to 5 results
|